| time (UTC) | temp F | wind direction | speed MPH | gust MPH | rain 1hr in | rain 24hr in | rain mn in | humidity % | barometer mb |
| 20260510204503 | 82 | 256 | 3.0 | 6.0 | 0.00 | 0.00 | 0.00 | 55 | 1017.0 |
| 20260510204003 | 81 | 268 | 2.0 | 6.0 | 0.00 | 0.00 | 0.00 | 55 | 1017.1 |
| 20260510203504 | 80 | 13 | 2.0 | 6.0 | 0.00 | 0.00 | 0.00 | 57 | 1017.2 |
| 20260510203004 | 78 | 150 | 1.0 | 3.0 | 0.00 | 0.00 | 0.00 | 61 | 1017.2 |
| 20260510202504 | 77 | 86 | 1.0 | 3.0 | 0.00 | 0.00 | 0.00 | 63 | 1017.3 |
| 20260510202004 | 77 | 94 | 0.0 | 5.0 | 0.00 | 0.00 | 0.00 | 65 | 1017.3 |
| 20260510201504 | 76 | 325 | 1.0 | 5.0 | 0.00 | 0.00 | 0.00 | 66 | 1017.3 |
| 20260510201004 | 77 | 269 | 1.0 | 5.0 | 0.00 | 0.00 | 0.00 | 67 | 1017.3 |
| 20260510200504 | 77 | 86 | 2.0 | 5.0 | 0.00 | 0.00 | 0.00 | 66 | 1017.3 |
| 20260510200004 | 78 | 54 | 1.0 | 5.0 | 0.00 | 0.00 | 0.00 | 66 | 1017.3 |
| 20260510195503 | 78 | 69 | 1.0 | 7.0 | 0.00 | 0.00 | 0.00 | 65 | 1017.4 |
| 20260510195004 | 79 | 312 | 3.0 | 7.0 | 0.00 | 0.00 | 0.00 | 63 | 1017.4 |
| 20260510194503 | 79 | 118 | 1.0 | 5.0 | 0.00 | 0.00 | 0.00 | 61 | 1017.4 |
| 20260510194004 | 78 | 291 | 1.0 | 5.0 | 0.00 | 0.00 | 0.00 | 62 | 1017.4 |
| 20260510193504 | 78 | 165 | 2.0 | 6.0 | 0.00 | 0.00 | 0.00 | 63 | 1017.4 |
| 20260510193004 | 78 | 107 | 2.0 | 6.0 | 0.00 | 0.00 | 0.00 | 63 | 1017.4 |
| 20260510192504 | 78 | 292 | 3.0 | 6.0 | 0.00 | 0.00 | 0.00 | 64 | 1017.4 |
| 20260510192004 | 78 | 280 | 2.0 | 6.0 | 0.00 | 0.00 | 0.00 | 63 | 1017.4 |
| 20260510191504 | 79 | 106 | 1.0 | 6.0 | 0.00 | 0.00 | 0.00 | 61 | 1017.4 |
| 20260510191004 | 78 | 281 | 2.0 | 5.0 | 0.00 | 0.00 | 0.00 | 60 | 1017.4 |
| 20260510190504 | 77 | 121 | 2.0 | 5.0 | 0.00 | 0.00 | 0.00 | 64 | 1017.5 |
| 20260510190004 | 77 | 135 | 2.0 | 6.0 | 0.00 | 0.00 | 0.00 | 63 | 1017.5 |
| 20260510185503 | 78 | 75 | 3.0 | 6.0 | 0.00 | 0.00 | 0.00 | 65 | 1017.6 |
| 20260510185004 | 78 | 86 | 1.0 | 6.0 | 0.00 | 0.00 | 0.00 | 62 | 1017.6 |
| 20260510184504 | 78 | 94 | 1.0 | 7.0 | 0.00 | 0.00 | 0.00 | 62 | 1017.6 |
| 20260510184004 | 79 | 117 | 3.0 | 7.0 | 0.00 | 0.00 | 0.00 | 63 | 1017.6 |
| 20260510183504 | 79 | 173 | 2.0 | 7.0 | 0.00 | 0.00 | 0.00 | 61 | 1017.6 |
| 20260510183004 | 77 | 268 | 1.0 | 7.0 | 0.00 | 0.00 | 0.00 | 63 | 1017.6 |
| 20260510182504 | 77 | 91 | 2.0 | 7.0 | 0.00 | 0.00 | 0.00 | 64 | 1017.6 |
| 20260510182004 | 77 | 270 | 3.0 | 7.0 | 0.00 | 0.00 | 0.00 | 63 | 1017.7 |
| 20260510181504 | 77 | 135 | 3.0 | 8.0 | 0.00 | 0.00 | 0.00 | 64 | 1017.6 |
| 20260510181004 | 78 | 93 | 3.0 | 8.0 | 0.00 | 0.00 | 0.00 | 64 | 1017.7 |
| 20260510180504 | 78 | 207 | 5.0 | 9.0 | 0.00 | 0.00 | 0.00 | 64 | 1017.7 |
| 20260510180004 | 77 | 119 | 2.0 | 9.0 | 0.00 | 0.00 | 0.00 | 65 | 1017.8 |
| 20260510175504 | 77 | 215 | 2.0 | 5.0 | 0.00 | 0.00 | 0.00 | 66 | 1017.8 |
| 20260510175004 | 77 | 101 | 2.0 | 8.0 | 0.00 | 0.00 | 0.00 | 67 | 1017.8 |
| 20260510174504 | 77 | 134 | 2.0 | 8.0 | 0.00 | 0.00 | 0.00 | 67 | 1017.9 |
| 20260510174004 | 76 | 143 | 2.0 | 8.0 | 0.00 | 0.00 | 0.00 | 67 | 1018.0 |
| 20260510173504 | 76 | 280 | 4.0 | 7.0 | 0.00 | 0.00 | 0.00 | 65 | 1018.0 |
| 20260510173004 | 76 | 264 | 3.0 | 7.0 | 0.00 | 0.00 | 0.00 | 66 | 1018.1 |
| 20260510172503 | 75 | 234 | 3.0 | 6.0 | 0.00 | 0.00 | 0.00 | 67 | 1018.1 |
| 20260510172004 | 75 | 265 | 3.0 | 8.0 | 0.00 | 0.00 | 0.00 | 69 | 1018.2 |
| 20260510171504 | 75 | 261 | 4.0 | 8.0 | 0.00 | 0.00 | 0.00 | 72 | 1018.2 |
| 20260510171004 | 75 | 262 | 2.0 | 6.0 | 0.00 | 0.00 | 0.00 | 70 | 1018.2 |
| 20260510170504 | 75 | 271 | 3.0 | 6.0 | 0.00 | 0.00 | 0.00 | 71 | 1018.2 |
| 20260510170004 | 76 | 264 | 3.0 | 6.0 | 0.00 | 0.00 | 0.00 | 71 | 1018.2 |
| 20260510165504 | 76 | 285 | 2.0 | 5.0 | 0.00 | 0.00 | 0.00 | 66 | 1018.3 |
| 20260510165004 | 76 | 90 | 2.0 | 6.0 | 0.00 | 0.00 | 0.00 | 69 | 1018.2 |
| 20260510164004 | 74 | 86 | 3.0 | 6.0 | 0.00 | 0.00 | 0.00 | 72 | 1018.3 |
| 20260510163504 | 74 | 272 | 3.0 | 5.0 | 0.00 | 0.00 | 0.00 | 70 | 1018.3 |
| 20260510163004 | 75 | 102 | 2.0 | 5.0 | 0.00 | 0.00 | 0.00 | 70 | 1018.3 |
| 20260510162503 | 74 | 104 | 1.0 | 6.0 | 0.00 | 0.00 | 0.00 | 74 | 1018.3 |
| 20260510162004 | 75 | 282 | 1.0 | 6.0 | 0.00 | 0.00 | 0.00 | 70 | 1018.3 |
| 20260510161504 | 74 | 82 | 2.0 | 5.0 | 0.00 | 0.00 | 0.00 | 73 | 1018.3 |
| 20260510161004 | 74 | 271 | 2.0 | 5.0 | 0.00 | 0.00 | 0.00 | 74 | 1018.3 |
| 20260510160503 | 74 | 111 | 2.0 | 5.0 | 0.00 | 0.00 | 0.00 | 73 | 1018.3 |
| 20260510160004 | 73 | 282 | 2.0 | 5.0 | 0.00 | 0.00 | 0.00 | 73 | 1018.3 |
| 20260510155503 | 73 | 316 | 2.0 | 6.0 | 0.00 | 0.00 | 0.00 | 76 | 1018.2 |
| 20260510155003 | 72 | 224 | 2.0 | 6.0 | 0.00 | 0.00 | 0.00 | 76 | 1018.1 |
| 20260510154504 | 71 | 202 | 2.0 | 6.0 | 0.00 | 0.00 | 0.00 | 78 | 1018.1 |
| 20260510154004 | 71 | 265 | 2.0 | 6.0 | 0.00 | 0.00 | 0.00 | 78 | 1018.1 |
| 20260510153503 | 72 | 262 | 1.0 | 3.0 | 0.00 | 0.00 | 0.00 | 76 | 1018.1 |
| 20260510153004 | 72 | 359 | 2.0 | 5.0 | 0.00 | 0.00 | 0.00 | 78 | 1018.1 |
| 20260510152504 | 72 | 292 | 3.0 | 5.0 | 0.00 | 0.00 | 0.00 | 77 | 1018.1 |
| 20260510152004 | 71 | 133 | 1.0 | 5.0 | 0.00 | 0.00 | 0.00 | 77 | 1018.1 |
| 20260510151504 | 71 | 276 | 2.0 | 5.0 | 0.00 | 0.00 | 0.00 | 78 | 1018.1 |
| 20260510151004 | 70 | 248 | 1.0 | 5.0 | 0.00 | 0.00 | 0.00 | 80 | 1018.1 |
| 20260510150504 | 70 | 310 | 2.0 | 5.0 | 0.00 | 0.00 | 0.00 | 79 | 1018.1 |
| 20260510150004 | 70 | 110 | 1.0 | 3.0 | 0.00 | 0.00 | 0.00 | 80 | 1018.2 |
| 20260510145503 | 70 | 133 | 1.0 | 3.0 | 0.00 | 0.00 | 0.00 | 81 | 1018.1 |
| 20260510145004 | 69 | 29 | 1.0 | 3.0 | 0.00 | 0.00 | 0.00 | 82 | 1018.1 |
| 20260510144503 | 69 | 245 | 1.0 | 3.0 | 0.00 | 0.00 | 0.00 | 83 | 1018.1 |
| 20260510144004 | 69 | 268 | 2.0 | 3.0 | 0.00 | 0.00 | 0.00 | 83 | 1018.1 |
| 20260510143504 | 69 | 302 | 1.0 | 3.0 | 0.00 | 0.00 | 0.00 | 83 | 1018.1 |
| 20260510143004 | 68 | 268 | 2.0 | 3.0 | 0.00 | 0.00 | 0.00 | 84 | 1018.1 |
| 20260510142504 | 68 | 86 | 1.0 | 3.0 | 0.00 | 0.00 | 0.00 | 85 | 1018.0 |
| 20260510142003 | 68 | 266 | 2.0 | 3.0 | 0.00 | 0.00 | 0.00 | 85 | 1018.0 |
| 20260510141504 | 67 | 225 | 1.0 | 3.0 | 0.00 | 0.00 | 0.00 | 86 | 1017.9 |
| 20260510141004 | 67 | 281 | 1.0 | 3.0 | 0.00 | 0.00 | 0.00 | 87 | 1017.9 |
| 20260510140504 | 67 | 251 | 1.0 | 3.0 | 0.00 | 0.00 | 0.00 | 86 | 1018.0 |
| 20260510140004 | 67 | 61 | 0.0 | 2.0 | 0.00 | 0.00 | 0.00 | 87 | 1017.9 |
| 20260510135504 | 66 | 125 | 1.0 | 2.0 | 0.00 | 0.00 | 0.00 | 89 | 1017.6 |
| 20260510135004 | 66 | 263 | 1.0 | 2.0 | 0.00 | 0.00 | 0.00 | 90 | 1017.5 |
| 20260510134504 | 66 | 209 | 1.0 | 2.0 | 0.00 | 0.00 | 0.00 | 90 | 1017.6 |
| 20260510134004 | 66 | 268 | 0.0 | 2.0 | 0.00 | 0.00 | 0.00 | 90 | 1017.3 |
| 20260510133503 | 65 | 266 | 1.0 | 2.0 | 0.00 | 0.00 | 0.00 | 90 | 1017.4 |
| 20260510133004 | 65 | 61 | 0.0 | 2.0 | 0.00 | 0.00 | 0.00 | 90 | 1017.2 |
| 20260510132503 | 65 | 61 | 1.0 | 2.0 | 0.00 | 0.00 | 0.00 | 91 | 1017.1 |
| 20260510132003 | 65 | 96 | 1.0 | 5.0 | 0.00 | 0.00 | 0.00 | 92 | 1017.0 |
| 20260510131503 | 65 | 77 | 3.0 | 5.0 | 0.00 | 0.00 | 0.00 | 92 | 1017.0 |
| 20260510131004 | 65 | 70 | 1.0 | 3.0 | 0.00 | 0.00 | 0.00 | 92 | 1016.9 |
| 20260510130503 | 65 | 58 | 2.0 | 3.0 | 0.00 | 0.00 | 0.00 | 91 | 1016.9 |
| 20260510130004 | 65 | 104 | 0.0 | 3.0 | 0.00 | 0.00 | 0.00 | 92 | 1016.6 |
| 20260510125504 | 65 | 88 | 0.0 | 3.0 | 0.00 | 0.00 | 0.00 | 93 | 1016.4 |
| 20260510125004 | 65 | 260 | 2.0 | 3.0 | 0.00 | 0.00 | 0.00 | 93 | 1016.5 |
| 20260510124504 | 65 | 94 | 1.0 | 2.0 | 0.00 | 0.00 | 0.00 | 93 | 1016.4 |
| 20260510124004 | 65 | 347 | 0.0 | 2.0 | 0.00 | 0.00 | 0.00 | 93 | 1016.2 |
| 20260510123503 | 64 | 347 | 0.0 | 2.0 | 0.00 | 0.00 | 0.00 | 93 | 1016.1 |
| 20260510123003 | 64 | 259 | 0.0 | 2.0 | 0.00 | 0.00 | 0.00 | 93 | 1016.1 |
| 20260510122504 | 64 | 69 | 0.0 | 2.0 | 0.00 | 0.00 | 0.00 | 95 | 1015.6 |
| 20260510122003 | 64 | 64 | 0.0 | 1.0 | 0.00 | 0.00 | 0.00 | 96 | 1015.4 |
| 20260510121504 | 64 | 91 | 0.0 | 2.0 | 0.00 | 0.00 | 0.00 | 96 | 1015.2 |
| 20260510121004 | 63 | 92 | 1.0 | 2.0 | 0.00 | 0.00 | 0.00 | 97 | 1014.9 |
| 20260510120504 | 63 | 65 | 1.0 | 2.0 | 0.00 | 0.00 | 0.00 | 97 | 1014.7 |
| 20260510120003 | 63 | 87 | 1.0 | 2.0 | 0.00 | 0.00 | 0.00 | 98 | 1014.2 |
| 20260510115504 | 63 | 112 | 1.0 | 2.0 | 0.00 | 0.00 | 0.00 | 99 | 1013.9 |
| 20260510115003 | 63 | 81 | 1.0 | 2.0 | 0.00 | 0.00 | 0.00 | 99 | 1013.5 |
| 20260510114504 | 63 | 64 | 0.0 | 2.0 | 0.00 | 0.00 | 0.00 | 100 | 1013.4 |
| 20260510114004 | 63 | 81 | 1.0 | 2.0 | 0.00 | 0.00 | 0.00 | 99 | 1013.2 |
| 20260510113504 | 63 | 60 | 1.0 | 2.0 | 0.00 | 0.00 | 0.00 | 99 | 1013.0 |
| 20260510113004 | 63 | 267 | 1.0 | 2.0 | 0.00 | 0.00 | 0.00 | 99 | 1012.9 |
| 20260510112505 | 63 | 341 | 1.0 | 3.0 | 0.00 | 0.00 | 0.00 | 99 | 1012.8 |
| 20260510112003 | 63 | 92 | 1.0 | 3.0 | 0.00 | 0.00 | 0.00 | 99 | 1012.6 |
| 20260510111503 | 63 | 66 | 2.0 | 3.0 | 0.00 | 0.00 | 0.00 | 99 | 1012.5 |
| 20260510111003 | 63 | 72 | 1.0 | 2.0 | 0.00 | 0.00 | 0.00 | 99 | 1012.5 |
| 20260510110504 | 63 | 50 | 1.0 | 2.0 | 0.00 | 0.00 | 0.00 | 99 | 1012.5 |
| 20260510110004 | 63 | 64 | 0.0 | 3.0 | 0.00 | 0.00 | 0.00 | 99 | 1012.4 |
| 20260510105504 | 63 | 70 | 1.0 | 3.0 | 0.00 | 0.00 | 0.00 | 99 | 1012.5 |
| 20260510105003 | 63 | 103 | 1.0 | 2.0 | 0.00 | 0.00 | 0.00 | 99 | 1012.5 |
| 20260510104504 | 63 | 269 | 1.0 | 2.0 | 0.00 | 0.00 | 0.00 | 99 | 1012.5 |
| 20260510104004 | 63 | 70 | 1.0 | 2.0 | 0.00 | 0.00 | 0.00 | 99 | 1012.4 |
| 20260510103504 | 63 | 80 | 2.0 | 2.0 | 0.00 | 0.00 | 0.00 | 99 | 1012.3 |
| 20260510103003 | 63 | 118 | 1.0 | 2.0 | 0.00 | 0.00 | 0.00 | 99 | 1012.3 |
| 20260510102504 | 63 | 283 | 2.0 | 2.0 | 0.00 | 0.00 | 0.00 | 99 | 1012.3 |
| 20260510102009 | 63 | 259 | 1.0 | 3.0 | 0.00 | 0.00 | 0.00 | 99 | 1012.3 |
| 20260510102004 | 63 | 260 | 1.0 | 3.0 | 0.00 | 0.00 | 0.00 | 99 | 1012.3 |
| 20260510101504 | 63 | 38 | 1.0 | 3.0 | 0.00 | 0.00 | 0.00 | 99 | 1012.2 |
| 20260510101003 | 63 | 71 | 2.0 | 3.0 | 0.00 | 0.00 | 0.00 | 99 | 1012.2 |
| 20260510100504 | 63 | 82 | 2.0 | 3.0 | 0.00 | 0.00 | 0.00 | 99 | 1012.1 |
| 20260510100004 | 63 | 131 | 0.0 | 3.0 | 0.00 | 0.00 | 0.00 | 99 | 1012.0 |
| 20260510095504 | 63 | 327 | 1.0 | 3.0 | 0.00 | 0.00 | 0.00 | 99 | 1012.0 |
| 20260510095004 | 63 | 328 | 1.0 | 3.0 | 0.00 | 0.00 | 0.00 | 99 | 1011.9 |
| 20260510094503 | 63 | 71 | 2.0 | 3.0 | 0.00 | 0.00 | 0.00 | 99 | 1011.9 |
| 20260510094003 | 63 | 58 | 1.0 | 3.0 | 0.00 | 0.00 | 0.00 | 99 | 1011.8 |
| 20260510093504 | 63 | 101 | 1.0 | 5.0 | 0.00 | 0.00 | 0.00 | 99 | 1011.8 |
| 20260510093003 | 63 | 3 | 1.0 | 5.0 | 0.00 | 0.00 | 0.00 | 99 | 1011.7 |
| 20260510092506 | 63 | 277 | 1.0 | 5.0 | 0.00 | 0.00 | 0.00 | 99 | 1011.7 |
| 20260510092004 | 63 | 288 | 2.0 | 5.0 | 0.00 | 0.00 | 0.00 | 99 | 1011.7 |
| 20260510091503 | 63 | 53 | 1.0 | 3.0 | 0.00 | 0.00 | 0.00 | 99 | 1011.7 |
| 20260510091003 | 63 | 326 | 1.0 | 5.0 | 0.00 | 0.00 | 0.00 | 99 | 1011.8 |
| 20260510090504 | 63 | 267 | 2.0 | 5.0 | 0.00 | 0.00 | 0.00 | 99 | 1011.8 |
| 20260510090003 | 63 | 292 | 2.0 | 5.0 | 0.00 | 0.00 | 0.00 | 99 | 1011.8 |
| 20260510085503 | 63 | 320 | 2.0 | 3.0 | 0.00 | 0.00 | 0.00 | 99 | 1011.8 |
| 20260510085004 | 63 | 306 | 1.0 | 3.0 | 0.00 | 0.00 | 0.00 | 99 | 1011.7 |
| 20260510084503 | 63 | 288 | 1.0 | 2.0 | 0.00 | 0.00 | 0.00 | 99 | 1011.7 |
| 20260510084004 | 63 | 331 | 1.0 | 2.0 | 0.00 | 0.00 | 0.00 | 99 | 1011.6 |
| 20260510083503 | 63 | 301 | 1.0 | 2.0 | 0.00 | 0.00 | 0.00 | 99 | 1011.7 |
| 20260510083022 | 63 | 3 | 0.0 | 3.0 | 0.00 | 0.00 | 0.00 | 99 | 1011.7 |
| 20260510083004 | 63 | 4 | 0.0 | 3.0 | 0.00 | 0.00 | 0.00 | 100 | 1011.7 |
| 20260510082509 | 63 | 300 | 1.0 | 3.0 | 0.00 | 0.00 | 0.00 | 100 | 1011.7 |
| 20260510082504 | 63 | 301 | 1.0 | 3.0 | 0.00 | 0.00 | 0.00 | 100 | 1011.7 |
| 20260510082004 | 63 | 325 | 1.0 | 3.0 | 0.00 | 0.00 | 0.00 | 100 | 1011.6 |
| 20260510081504 | 63 | 236 | 1.0 | 3.0 | 0.00 | 0.00 | 0.00 | 100 | 1011.5 |
| 20260510081004 | 64 | 262 | 2.0 | 3.0 | 0.00 | 0.00 | 0.00 | 100 | 1011.5 |
| 20260510080504 | 64 | 232 | 1.0 | 3.0 | 0.00 | 0.00 | 0.00 | 100 | 1011.5 |
| 20260510080003 | 64 | 264 | 1.0 | 3.0 | 0.00 | 0.00 | 0.00 | 100 | 1011.5 |
| 20260510075504 | 64 | 147 | 1.0 | 3.0 | 0.00 | 0.00 | 0.00 | 100 | 1011.5 |
| 20260510075004 | 64 | 69 | 1.0 | 3.0 | 0.00 | 0.00 | 0.00 | 100 | 1011.4 |
| 20260510074503 | 64 | 253 | 1.0 | 6.0 | 0.00 | 0.00 | 0.00 | 100 | 1011.4 |
| 20260510074003 | 64 | 268 | 2.0 | 6.0 | 0.00 | 0.00 | 0.00 | 100 | 1011.4 |
| 20260510073504 | 64 | 278 | 2.0 | 5.0 | 0.00 | 0.00 | 0.00 | 100 | 1011.4 |
| 20260510073008 | 64 | 263 | 1.0 | 5.0 | 0.00 | 0.00 | 0.00 | 100 | 1011.5 |
| 20260510072504 | 64 | 291 | 2.0 | 3.0 | 0.00 | 0.00 | 0.00 | 100 | 1011.5 |
| 20260510072004 | 64 | 268 | 2.0 | 3.0 | 0.00 | 0.00 | 0.00 | 100 | 1011.5 |
| 20260510071504 | 64 | 280 | 1.0 | 3.0 | 0.00 | 0.00 | 0.00 | 100 | 1011.7 |
| 20260510071004 | 64 | 329 | 1.0 | 3.0 | 0.00 | 0.00 | 0.00 | 100 | 1011.7 |
| 20260510070503 | 63 | 318 | 1.0 | 3.0 | 0.00 | 0.00 | 0.00 | 100 | 1011.8 |
| 20260510070004 | 63 | 313 | 2.0 | 3.0 | 0.00 | 0.00 | 0.00 | 99 | 1011.9 |
| 20260510065003 | 64 | 297 | 1.0 | 2.0 | 0.00 | 0.00 | 0.00 | 99 | 1012.1 |
| 20260510064504 | 64 | 300 | 1.0 | 3.0 | 0.00 | 0.00 | 0.00 | 99 | 1012.1 |
| 20260510064004 | 64 | 12 | 1.0 | 3.0 | 0.00 | 0.00 | 0.00 | 99 | 1012.1 |
| 20260510063503 | 64 | 262 | 2.0 | 3.0 | 0.00 | 0.00 | 0.00 | 98 | 1012.1 |
| 20260510063003 | 64 | 262 | 1.0 | 3.0 | 0.00 | 0.00 | 0.00 | 98 | 1012.1 |
| 20260510062504 | 64 | 29 | 1.0 | 3.0 | 0.00 | 0.00 | 0.00 | 98 | 1012.0 |
| 20260510062004 | 64 | 317 | 1.0 | 3.0 | 0.00 | 0.00 | 0.00 | 99 | 1012.0 |
| 20260510061503 | 64 | 2 | 1.0 | 5.0 | 0.00 | 0.00 | 0.00 | 99 | 1012.0 |
| 20260510061004 | 64 | 247 | 1.0 | 5.0 | 0.00 | 0.00 | 0.00 | 99 | 1012.0 |
| 20260510060505 | 64 | 285 | 3.0 | 5.0 | 0.00 | 0.00 | 0.00 | 99 | 1012.1 |
| 20260510060004 | 63 | 282 | 2.0 | 3.0 | 0.00 | 0.00 | 0.00 | 99 | 1012.2 |
| 20260510055503 | 63 | 300 | 1.0 | 2.0 | 0.00 | 0.00 | 0.00 | 99 | 1012.3 |
| 20260510055004 | 63 | 282 | 1.0 | 2.0 | 0.00 | 0.00 | 0.00 | 99 | 1012.3 |
| 20260510054504 | 63 | 46 | 1.0 | 2.0 | 0.00 | 0.00 | 0.00 | 99 | 1012.3 |
| 20260510054004 | 63 | 80 | 1.0 | 2.0 | 0.00 | 0.00 | 0.00 | 99 | 1012.4 |
| 20260510053504 | 63 | 333 | 0.0 | 1.0 | 0.00 | 0.00 | 0.00 | 98 | 1012.5 |
| 20260510053004 | 63 | 78 | 0.0 | 2.0 | 0.00 | 0.00 | 0.00 | 98 | 1012.5 |
| 20260510052505 | 63 | 331 | 1.0 | 2.0 | 0.00 | 0.00 | 0.00 | 99 | 1012.4 |
| 20260510052503 | 63 | 319 | 1.0 | 2.0 | 0.00 | 0.00 | 0.00 | 99 | 1012.4 |
| 20260510052004 | 63 | 8 | 1.0 | 2.0 | 0.00 | 0.00 | 0.00 | 99 | 1012.5 |
| 20260510051504 | 63 | 321 | 0.0 | 2.0 | 0.00 | 0.00 | 0.00 | 98 | 1012.5 |
| 20260510051003 | 63 | 71 | 0.0 | 2.0 | 0.00 | 0.00 | 0.00 | 98 | 1012.5 |
| 20260510050503 | 63 | 64 | 0.0 | 2.0 | 0.00 | 0.00 | 0.00 | 98 | 1012.5 |
| 20260510050004 | 64 | 73 | 0.0 | 2.0 | 0.00 | 0.00 | 0.00 | 98 | 1012.5 |
| 20260510045504 | 64 | 352 | 1.0 | 2.0 | 0.00 | 0.00 | 0.00 | 98 | 1012.5 |
| 20260510045003 | 64 | 36 | 1.0 | 2.0 | 0.00 | 0.00 | 0.00 | 98 | 1012.5 |
| 20260510044503 | 64 | 65 | 0.0 | 2.0 | 0.00 | 0.00 | 0.00 | 98 | 1012.5 |
| 20260510044005 | 64 | 71 | 1.0 | 2.0 | 0.00 | 0.00 | 0.00 | 98 | 1012.5 |
| 20260510043503 | 64 | 16 | 1.0 | 2.0 | 0.00 | 0.00 | 0.00 | 98 | 1012.5 |
| 20260510043003 | 64 | 305 | 1.0 | 2.0 | 0.00 | 0.00 | 0.00 | 98 | 1012.6 |
| 20260510042504 | 64 | 323 | 1.0 | 2.0 | 0.00 | 0.00 | 0.00 | 98 | 1012.7 |
| 20260510042005 | 64 | 6 | 1.0 | 2.0 | 0.00 | 0.00 | 0.00 | 98 | 1012.8 |
| 20260510042003 | 64 | 10 | 1.0 | 2.0 | 0.00 | 0.00 | 0.00 | 98 | 1012.8 |
| 20260510041504 | 64 | 100 | 0.0 | 2.0 | 0.00 | 0.00 | 0.00 | 97 | 1012.9 |
| 20260510041004 | 64 | 311 | 1.0 | 1.0 | 0.00 | 0.00 | 0.00 | 97 | 1012.9 |
| 20260510040504 | 64 | 278 | 0.0 | 2.0 | 0.00 | 0.00 | 0.00 | 97 | 1012.9 |
| 20260510040004 | 65 | 285 | 1.0 | 2.0 | 0.00 | 0.00 | 0.00 | 97 | 1012.9 |
| 20260510035504 | 65 | 350 | 1.0 | 2.0 | 0.00 | 0.00 | 0.00 | 97 | 1013.1 |
| 20260510035003 | 65 | 81 | 0.0 | 2.0 | 0.00 | 0.00 | 0.00 | 96 | 1013.1 |
| 20260510034504 | 65 | 50 | 1.0 | 2.0 | 0.00 | 0.00 | 0.00 | 96 | 1013.2 |
| 20260510034006 | 65 | 105 | 1.0 | 2.0 | 0.00 | 0.00 | 0.00 | 97 | 1013.2 |
| 20260510034003 | 65 | 116 | 1.0 | 2.0 | 0.00 | 0.00 | 0.00 | 97 | 1013.2 |
| 20260510033503 | 65 | 121 | 1.0 | 2.0 | 0.00 | 0.00 | 0.00 | 96 | 1013.3 |
| 20260510033003 | 65 | 59 | 0.0 | 1.0 | 0.00 | 0.00 | 0.00 | 96 | 1013.4 |
| 20260510032503 | 65 | 66 | 0.0 | 2.0 | 0.00 | 0.00 | 0.00 | 96 | 1013.4 |
| 20260510032003 | 65 | 298 | 0.0 | 2.0 | 0.00 | 0.00 | 0.00 | 95 | 1013.5 |
| 20260510031504 | 65 | 292 | 0.0 | 2.0 | 0.00 | 0.00 | 0.00 | 95 | 1013.5 |
| 20260510031004 | 65 | 340 | 1.0 | 2.0 | 0.00 | 0.00 | 0.00 | 95 | 1013.6 |
| 20260510030503 | 66 | 53 | 1.0 | 2.0 | 0.00 | 0.00 | 0.00 | 94 | 1013.6 |
| 20260510030004 | 66 | 53 | 1.0 | 2.0 | 0.00 | 0.00 | 0.00 | 94 | 1013.6 |
| 20260510025504 | 66 | 319 | 0.0 | 3.0 | 0.00 | 0.00 | 0.00 | 94 | 1013.6 |
| 20260510025004 | 66 | 306 | 1.0 | 3.0 | 0.00 | 0.00 | 0.00 | 94 | 1013.6 |
| 20260510023504 | 66 | 278 | 0.0 | 2.0 | 0.00 | 0.00 | 0.00 | 93 | 1013.7 |
| 20260510023004 | 66 | 74 | 0.0 | 2.0 | 0.00 | 0.00 | 0.00 | 93 | 1013.7 |
| 20260510022504 | 67 | 297 | 1.0 | 3.0 | 0.00 | 0.00 | 0.00 | 93 | 1013.7 |
| 20260510022004 | 67 | 270 | 1.0 | 3.0 | 0.00 | 0.00 | 0.00 | 92 | 1013.7 |
| 20260510021504 | 67 | 266 | 2.0 | 3.0 | 0.00 | 0.00 | 0.00 | 92 | 1013.7 |
| 20260510021004 | 67 | 28 | 1.0 | 3.0 | 0.00 | 0.00 | 0.00 | 92 | 1013.7 |
| 20260510020504 | 67 | 83 | 1.0 | 3.0 | 0.00 | 0.00 | 0.00 | 92 | 1013.6 |
| 20260510020004 | 67 | 271 | 1.0 | 3.0 | 0.00 | 0.00 | 0.00 | 92 | 1013.6 |
| 20260510015503 | 67 | 274 | 1.0 | 2.0 | 0.00 | 0.00 | 0.00 | 92 | 1013.5 |
| 20260510015004 | 67 | 118 | 1.0 | 3.0 | 0.00 | 0.00 | 0.00 | 91 | 1013.6 |
| 20260510014504 | 67 | 285 | 1.0 | 3.0 | 0.00 | 0.00 | 0.00 | 91 | 1013.6 |
| 20260510014004 | 67 | 97 | 1.0 | 3.0 | 0.00 | 0.00 | 0.00 | 91 | 1013.6 |
| 20260510013504 | 67 | 3 | 1.0 | 5.0 | 0.00 | 0.00 | 0.00 | 90 | 1013.5 |
| 20260510013005 | 67 | 110 | 1.0 | 5.0 | 0.00 | 0.00 | 0.00 | 90 | 1013.6 |
| 20260510012504 | 68 | 276 | 1.0 | 5.0 | 0.00 | 0.00 | 0.00 | 90 | 1013.6 |
| 20260510012004 | 68 | 281 | 1.0 | 5.0 | 0.00 | 0.00 | 0.00 | 89 | 1013.6 |
| 20260510011504 | 68 | 131 | 1.0 | 3.0 | 0.00 | 0.00 | 0.00 | 89 | 1013.6 |
| 20260510011004 | 68 | 343 | 1.0 | 3.0 | 0.00 | 0.00 | 0.00 | 88 | 1013.7 |
| 20260510010504 | 68 | 103 | 1.0 | 3.0 | 0.00 | 0.00 | 0.00 | 88 | 1013.6 |
| 20260510010004 | 68 | 357 | 1.0 | 3.0 | 0.00 | 0.00 | 0.00 | 88 | 1013.6 |
| 20260510005504 | 68 | 54 | 1.0 | 3.0 | 0.00 | 0.00 | 0.00 | 87 | 1013.7 |
| 20260510005004 | 69 | 276 | 1.0 | 5.0 | 0.00 | 0.00 | 0.00 | 87 | 1013.7 |
| 20260510004504 | 69 | 47 | 1.0 | 5.0 | 0.00 | 0.00 | 0.00 | 86 | 1013.7 |
| 20260510003504 | 69 | 269 | 1.0 | 3.0 | 0.00 | 0.00 | 0.00 | 87 | 1013.7 |
| 20260510003004 | 69 | 70 | 1.0 | 3.0 | 0.00 | 0.00 | 0.00 | 86 | 1013.7 |
| 20260510002504 | 70 | 82 | 1.0 | 5.0 | 0.00 | 0.00 | 0.00 | 85 | 1013.7 |
| 20260510002004 | 70 | 132 | 1.0 | 5.0 | 0.00 | 0.00 | 0.00 | 85 | 1013.6 |
| 20260510001504 | 70 | 97 | 1.0 | 5.0 | 0.00 | 0.00 | 0.00 | 84 | 1013.8 |
| 20260510001004 | 70 | 113 | 1.0 | 3.0 | 0.00 | 0.00 | 0.00 | 84 | 1013.8 |
| 20260510000504 | 70 | 65 | 1.0 | 3.0 | 0.00 | 0.00 | 0.00 | 83 | 1013.8 |
| 20260510000003 | 71 | 101 | 0.0 | 3.0 | 0.00 | 0.00 | 0.00 | 82 | 1013.8 |
| 20260509235509 | 71 | 99 | 1.0 | 2.0 | 0.00 | 0.00 | 0.00 | 82 | 1013.8 |
| 20260509235504 | 71 | 98 | 1.0 | 2.0 | 0.00 | 0.00 | 0.00 | 82 | 1013.8 |
| 20260509235004 | 71 | 229 | 0.0 | 2.0 | 0.00 | 0.00 | 0.00 | 80 | 1013.8 |
| 20260509234504 | 71 | 87 | 1.0 | 2.0 | 0.00 | 0.00 | 0.00 | 81 | 1013.8 |
| 20260509234004 | 72 | 263 | 0.0 | 2.0 | 0.00 | 0.00 | 0.00 | 80 | 1013.8 |
| 20260509233504 | 72 | 279 | 0.0 | 2.0 | 0.00 | 0.00 | 0.00 | 78 | 1013.9 |
| 20260509233004 | 72 | 183 | 1.0 | 2.0 | 0.00 | 0.00 | 0.00 | 78 | 1013.8 |
| 20260509232503 | 72 | 293 | 0.0 | 3.0 | 0.00 | 0.00 | 0.00 | 78 | 1013.7 |
| 20260509231504 | 73 | 282 | 1.0 | 2.0 | 0.00 | 0.00 | 0.00 | 77 | 1013.8 |
| 20260509231004 | 73 | 357 | 1.0 | 2.0 | 0.00 | 0.00 | 0.00 | 76 | 1013.7 |
| 20260509230504 | 73 | 115 | 1.0 | 2.0 | 0.00 | 0.00 | 0.00 | 76 | 1013.6 |
| 20260509230004 | 73 | 84 | 0.0 | 2.0 | 0.00 | 0.00 | 0.00 | 75 | 1013.6 |
| 20260509225516 | 73 | 318 | 0.0 | 2.0 | 0.00 | 0.00 | 0.00 | 74 | 1013.7 |
| 20260509225504 | 73 | 319 | 0.0 | 2.0 | 0.00 | 0.00 | 0.00 | 74 | 1013.7 |
| 20260509225010 | 73 | 118 | 1.0 | 3.0 | 0.00 | 0.00 | 0.00 | 75 | 1013.6 |
| 20260509224504 | 73 | 83 | 1.0 | 5.0 | 0.00 | 0.00 | 0.00 | 75 | 1013.7 |
| 20260509224004 | 73 | 312 | 1.0 | 5.0 | 0.00 | 0.00 | 0.00 | 76 | 1013.7 |
| 20260509223504 | 73 | 276 | 2.0 | 3.0 | 0.00 | 0.00 | 0.00 | 76 | 1013.6 |
| 20260509223004 | 73 | 173 | 1.0 | 3.0 | 0.00 | 0.00 | 0.00 | 75 | 1013.5 |
| 20260509222504 | 74 | 273 | 2.0 | 3.0 | 0.00 | 0.00 | 0.00 | 75 | 1013.6 |
| 20260509222003 | 74 | 285 | 1.0 | 3.0 | 0.00 | 0.00 | 0.00 | 74 | 1013.6 |
| 20260509221503 | 74 | 285 | 2.0 | 5.0 | 0.00 | 0.00 | 0.00 | 74 | 1013.5 |
| 20260509221004 | 75 | 285 | 3.0 | 5.0 | 0.00 | 0.00 | 0.00 | 73 | 1013.5 |
| 20260509220504 | 75 | 279 | 2.0 | 5.0 | 0.00 | 0.00 | 0.00 | 69 | 1013.7 |
| 20260509220004 | 76 | 270 | 1.0 | 5.0 | 0.00 | 0.00 | 0.00 | 67 | 1013.5 |
| 20260509215003 | 75 | 255 | 2.0 | 3.0 | 0.00 | 0.00 | 0.00 | 68 | 1013.5 |
| 20260509214504 | 75 | 312 | 2.0 | 3.0 | 0.00 | 0.00 | 0.00 | 70 | 1013.5 |
| 20260509214004 | 75 | 302 | 1.0 | 3.0 | 0.00 | 0.00 | 0.00 | 70 | 1013.5 |
| 20260509213503 | 75 | 24 | 2.0 | 3.0 | 0.00 | 0.00 | 0.00 | 69 | 1013.4 |
| 20260509213005 | 76 | 283 | 2.0 | 3.0 | 0.00 | 0.00 | 0.00 | 67 | 1013.4 |
| 20260509213003 | 76 | 281 | 2.0 | 3.0 | 0.00 | 0.00 | 0.00 | 67 | 1013.4 |
| 20260509212504 | 76 | 274 | 2.0 | 3.0 | 0.00 | 0.00 | 0.00 | 67 | 1013.3 |
| 20260509212004 | 76 | 265 | 2.0 | 3.0 | 0.00 | 0.00 | 0.00 | 66 | 1013.3 |
| 20260509211504 | 76 | 86 | 1.0 | 6.0 | 0.00 | 0.00 | 0.00 | 66 | 1013.3 |
| 20260509211004 | 76 | 297 | 2.0 | 6.0 | 0.00 | 0.00 | 0.00 | 67 | 1013.4 |
| 20260509210003 | 76 | 273 | 2.0 | 5.0 | 0.00 | 0.00 | 0.00 | 68 | 1013.2 |
| 20260509205504 | 75 | 284 | 2.0 | 5.0 | 0.00 | 0.00 | 0.00 | 67 | 1013.1 |
| 20260509205004 | 75 | 311 | 1.0 | 3.0 | 0.00 | 0.00 | 0.00 | 66 | 1013.3 |